Weather History for Fryeburg, ME

Change the Weather History Date:

Sunday, March 3, 2013

  Actual Average Record
Temperature  
Mean Temperature 34 °F -  
Max Temperature 39 °F 34 °F 46 °F (1998)
Min Temperature 30 °F 14 °F -9 °F (2011)
Degree Days  
Heating Degree Days 30    
Moisture  
Dew Point 27 °F    
Average Humidity 81    
Maximum Humidity 96    
Minimum Humidity 55    
Precipitation  
Precipitation 0.03 in - - ()
Sea Level Pressure  
Sea Level Pressure 29.60 in    
Wind  
Wind Speed 1 mph (WNW)    
Max Wind Speed 10 mph    
Max Gust Speed -    
Visibility 8 miles    
Events Rain , Snow    
Averages and records for this station are not official NWS values.
T = Trace of Precipitation, MM = Missing Value Source: NWS Daily Summary

Daily Weather History Graph

Daily Weather History Graph

Search for Another Location

Airport:

Trip Planner

Search our weather history database for the weather conditions in past years. The results will help you decide how hot, cold, wet, or windy it might be!

Date:

Astronomy

Mar. 03, 2013 Rise Set
Actual Time 6:16 AM EST 5:35 PM EST
Civil Twilight 5:48 AM EST 6:03 PM EST
Nautical Twilight 5:14 AM EST 6:37 PM EST
Astronomical Twilight 4:41 AM EST 7:10 PM EST
Moon No Moon Rise 9:15 AM EST (3/3)
Length of Visible Light 12h 15m
Length of Day
11h 18m
Waning Gibbous, 64% of the Moon is Illuminated
Mar 3
Waning Gibbous
Mar 4
Last Quarter
Mar 11
New
Mar 19
First Quarter
Mar 27
Full

Hourly Weather History & Observations

Time (EST) Temp. Windchill Dew Point Humidity Pressure Visibility Wind Dir Wind Speed Gust Speed Precip Events Conditions
12:01 AM 30.2 °F - 28.4 °F 93% 29.63 in 5.0 mi Calm Calm - 0.00 in Snow Light Snow
12:21 AM 30.2 °F - 28.4 °F 93% 29.63 in 1.8 mi Calm Calm - 0.01 in Snow Light Snow
12:30 AM 30.2 °F - 28.4 °F 93% 29.62 in 1.0 mi Calm Calm - 0.01 in Snow Light Snow
12:37 AM 30.2 °F - 28.4 °F 93% 29.62 in 2.0 mi Calm Calm - 0.01 in Snow Light Snow
12:46 AM 30.2 °F - 28.4 °F 93% 29.62 in 4.0 mi Calm Calm - 0.01 in Snow Light Snow
12:54 AM 30.0 °F - 28.9 °F 96% 29.64 in 2.0 mi Calm Calm - 0.02 in Snow Light Snow
12:56 AM 30.2 °F - 28.4 °F 93% 29.62 in 1.8 mi Calm Calm - 0.00 in Snow Light Snow
1:31 AM 30.2 °F - 28.4 °F 93% 29.62 in 4.0 mi Calm Calm - 0.00 in Snow Light Snow
1:54 AM 30.0 °F - 28.9 °F 96% 29.63 in 10.0 mi Calm Calm - 0.00 in   Overcast
2:01 AM 30.2 °F - 28.4 °F 93% 29.61 in 9.0 mi Calm Calm - N/A   Overcast
2:22 AM 30.2 °F - 28.4 °F 93% 29.60 in 5.0 mi Calm Calm - 0.00 in Snow Light Snow
2:54 AM 30.0 °F - 28.0 °F 92% 29.62 in 6.0 mi Calm Calm - 0.00 in Snow Light Snow
4:54 AM 30.0 °F - 28.0 °F 92% 29.62 in 4.0 mi Calm Calm - 0.00 in Snow Light Snow
5:27 AM 30.2 °F 26.7 °F 28.4 °F 93% 29.60 in 10.0 mi West 3.5 mph - 0.00 in   Overcast
5:54 AM 30.0 °F 26.5 °F 28.0 °F 92% 29.62 in 10.0 mi WSW 3.5 mph - 0.00 in   Overcast
6:01 AM 30.2 °F 26.7 °F 28.4 °F 93% 29.60 in 10.0 mi WSW 3.5 mph - N/A   Overcast
6:19 AM 30.2 °F - 28.4 °F 93% 29.60 in 10.0 mi Calm Calm - N/A   Overcast
6:54 AM 30.9 °F 27.5 °F 28.0 °F 89% 29.62 in 10.0 mi WSW 3.5 mph - 0.01 in   Overcast
7:30 AM 30.2 °F 26.7 °F 26.6 °F 86% 29.61 in 10.0 mi WSW 3.5 mph - N/A   Overcast
7:54 AM 32.0 °F 28.7 °F 28.0 °F 85% 29.62 in 10.0 mi West 3.5 mph - N/A   Overcast
8:54 AM 34.0 °F - 28.9 °F 82% 29.62 in 10.0 mi Calm Calm - N/A   Overcast
9:54 AM 36.0 °F - 28.0 °F 73% 29.60 in 10.0 mi Calm Calm - 0.00 in   Overcast
10:54 AM 37.9 °F - 28.0 °F 68% 29.59 in 10.0 mi Calm Calm - 0.00 in   Overcast
11:54 AM 39.9 °F - 28.0 °F 63% 29.58 in 10.0 mi Calm Calm - 0.00 in Rain Light Rain
12:54 PM 39.9 °F 36.7 °F 27.0 °F 60% 29.56 in 10.0 mi WNW 4.6 mph - 0.00 in   Overcast
1:54 PM 39.0 °F 34.0 °F 25.0 °F 57% 29.56 in 10.0 mi NNW 6.9 mph - N/A   Overcast
2:54 PM 39.0 °F 32.3 °F 24.1 °F 55% 29.56 in 10.0 mi NNE 10.4 mph - N/A   Overcast
3:54 PM 37.9 °F 30.9 °F 25.0 °F 60% 29.56 in 10.0 mi North 10.4 mph - N/A   Overcast
4:54 PM 37.0 °F 32.4 °F 25.0 °F 62% 29.57 in 10.0 mi North 5.8 mph - N/A   Overcast
5:54 PM 36.0 °F 31.1 °F 25.0 °F 64% 29.58 in 10.0 mi NNW 5.8 mph - N/A   Overcast
6:54 PM 34.0 °F - 25.0 °F 70% 29.59 in 10.0 mi Calm Calm - N/A   Scattered Clouds
7:54 PM 34.0 °F 29.8 °F 25.0 °F 70% 29.59 in 10.0 mi NNW 4.6 mph - N/A   Overcast
8:54 PM 32.0 °F 28.7 °F 25.0 °F 75% 29.58 in 10.0 mi WNW 3.5 mph - N/A   Overcast
9:54 PM 32.0 °F - 25.0 °F 75% 29.57 in 10.0 mi Calm Calm - N/A   Overcast
10:54 PM 32.0 °F 26.4 °F 23.0 °F 69% 29.56 in 10.0 mi Variable 5.8 mph - N/A   Overcast
11:54 PM 32.0 °F 27.5 °F 21.9 °F 66% 29.56 in 10.0 mi WNW 4.6 mph - N/A   Overcast